Salamanca, Spain

5:28 PM CEST on September 24, 2017 (GMT +0200)
Matacan

Weather History for LESA - October, 2013

Change the Weather History Date:

Thursday, October 3, 2013

  Actual Average Record
Temperature  
Mean Temperature 64 °F -  
Max Temperature 72 °F - - ()
Min Temperature 57 °F - - ()
Growing Degree Days 14 (Base 50)    
Moisture  
Dew Point 55 °F    
Average Humidity 72    
Maximum Humidity 94    
Minimum Humidity 42    
Precipitation  
Precipitation 0.03 in 0.05 in - ()
Sea Level Pressure  
Sea Level Pressure 29.88 in    
Wind  
Wind Speed 11 mph ()    
Max Wind Speed 24 mph    
Max Gust Speed 29 mph    
Visibility 6.6 miles    
Events Rain    
T = Trace of Precipitation, MM = Missing Value Source: Averaged Metar Reports

Daily Weather History Graph

Daily Weather History Graph

Search for Another Location

Airport or City:

Trip Planner

Search our weather history database for the weather conditions in past years. The results will help you decide how hot, cold, wet, or windy it might be!

Date:

Astronomy

Oct. 03, 2013 Rise Set
Actual Time 8:20 AM CEST 8:00 PM CEST
Civil Twilight 7:53 AM CEST 8:27 PM CEST
Nautical Twilight 7:21 AM CEST 8:59 PM CEST
Astronomical Twilight 6:49 AM CEST 9:31 PM CEST
Moon 6:39 AM CEST (10/3) 7:01 PM CEST (10/3)
Length of Visible Light 12h 34m
Length of Day
11h 39m
Waning Crescent, 3% of the Moon is Illuminated
Oct 3
Waning Crescent
Oct 5
New
Oct 12
First Quarter
Oct 19
Full
Oct 27
Last Quarter

Hourly Weather History & Observations

Time (CEST) Temp. Dew Point Humidity Pressure Visibility Wind Dir Wind Speed Gust Speed Precip Events Conditions
12:00 AM 69.8 °F 51.8 °F 53% 29.77 in - South 10.4 mph - N/A   Clear
12:30 AM 68.0 °F 53.6 °F 60% 29.77 in - South 13.8 mph - N/A   Clear
1:00 AM 68.0 °F 53.6 °F 60% 29.77 in - South 9.2 mph - N/A   Clear
1:30 AM 64.4 °F 53.6 °F 68% 29.77 in - South 8.1 mph - N/A   Clear
2:00 AM 64.4 °F 55.4 °F 73% 29.77 in - SW 8.1 mph - N/A   Clear
2:30 AM 64.4 °F 57.2 °F 77% 29.80 in - SW 10.4 mph - N/A   Clear
3:00 AM 64.4 °F 59.0 °F 83% 29.80 in - SW 12.7 mph - N/A   Clear
3:30 AM 64.4 °F 59.0 °F 83% 29.80 in 6.2 mi SW 17.3 mph 28.8 mph N/A   Scattered Clouds
4:00 AM 64.4 °F 59.0 °F 83% 29.80 in 6.2 mi SW 11.5 mph - N/A   Scattered Clouds
4:30 AM 62.6 °F 59.0 °F 88% 29.80 in 6.2 mi SW 12.7 mph - N/A   Partly Cloudy
5:00 AM 62.6 °F 59.0 °F 88% 29.80 in 6.2 mi SW 9.2 mph - N/A   Partly Cloudy
5:30 AM 62.6 °F 57.2 °F 82% 29.80 in 6.2 mi WSW 13.8 mph - N/A   Partly Cloudy
6:00 AM 62.6 °F 57.2 °F 82% 29.80 in 6.2 mi WSW 11.5 mph - N/A   Partly Cloudy
6:20 AM 60.8 °F 57.2 °F 88% 29.83 in 6.2 mi WSW 11.5 mph - N/A Rain Light Rain
6:30 AM 59.0 °F 57.2 °F 94% 29.83 in 6.2 mi WSW 11.5 mph - N/A Rain Light Rain
7:00 AM 59.0 °F 57.2 °F 94% 29.83 in 5.0 mi SW 9.2 mph - N/A Rain Light Rain
7:30 AM 59.0 °F 55.4 °F 88% 29.83 in 6.2 mi WSW 11.5 mph - N/A   Mostly Cloudy
8:00 AM 58 °F 55 °F 87%  in 12 mi SW 10.4 mph - -   Partly Cloudy
8:00 AM 57.2 °F 55.4 °F 94% 29.83 in 6.2 mi SW 10.4 mph - N/A   Partly Cloudy
8:30 AM 57.2 °F 55.4 °F 94% 29.83 in 6.2 mi WSW 12.7 mph - N/A   Partly Cloudy
9:00 AM 57.2 °F 55.4 °F 94% 29.86 in 6.2 mi SW 9.2 mph - N/A   Partly Cloudy
9:30 AM 60.8 °F 55.4 °F 82% 29.86 in 6.2 mi SSW 12.7 mph - N/A   Partly Cloudy
10:00 AM 62.6 °F 57.2 °F 82% 29.89 in 6.2 mi SW 13.8 mph - N/A   Partly Cloudy
10:30 AM 64.4 °F 55.4 °F 73% 29.89 in 6.2 mi SW 17.3 mph - N/A   Partly Cloudy
11:00 AM 64.4 °F 57.2 °F 77% 29.89 in 6.2 mi SW 17.3 mph - N/A   Partly Cloudy
11:30 AM 66.2 °F 55.4 °F 68% 29.92 in 6.2 mi SW 20.7 mph - N/A   Partly Cloudy
12:00 PM 68.0 °F 53.6 °F 60% 29.92 in 6.2 mi SW 19.6 mph - N/A   Partly Cloudy
12:30 PM 69.8 °F 51.8 °F 53% 29.92 in 6.2 mi SW 24.2 mph - N/A   Partly Cloudy
1:00 PM 69.8 °F 53.6 °F 56% 29.92 in 6.2 mi SW 23.0 mph - N/A   Partly Cloudy
1:30 PM 69.8 °F 53.6 °F 56% 29.92 in 6.2 mi SW 20.7 mph - N/A   Partly Cloudy
2:00 PM 71 °F 53 °F 42%  in 12 mi SW 18.4 mph - -   Scattered Clouds
2:00 PM 71.6 °F 53.6 °F 53% 29.92 in 6.2 mi SW 17.3 mph - N/A   Partly Cloudy
2:30 PM 69.8 °F 55.4 °F 60% 29.92 in 6.2 mi WSW 18.4 mph - N/A   Partly Cloudy
3:00 PM 71.6 °F 55.4 °F 57% 29.92 in 6.2 mi WSW 17.3 mph - N/A   Scattered Clouds
3:30 PM 68.0 °F 57.2 °F 68% 29.92 in 6.2 mi West 13.8 mph - N/A   Scattered Clouds
4:00 PM 69.8 °F 55.4 °F 60% 29.92 in 6.2 mi WSW 18.4 mph - N/A   Scattered Clouds
4:30 PM 69.8 °F 53.6 °F 56% 29.92 in 6.2 mi WSW 21.9 mph - N/A   Scattered Clouds
5:00 PM 69.8 °F 53.6 °F 56% 29.92 in 6.2 mi WSW 19.6 mph - N/A   Scattered Clouds
5:30 PM 69.8 °F 53.6 °F 56% 29.92 in 6.2 mi WSW 16.1 mph - N/A   Partly Cloudy
6:00 PM 69.8 °F 53.6 °F 56% 29.92 in 6.2 mi WSW 16.1 mph - N/A   Partly Cloudy
6:30 PM 68.0 °F 55.4 °F 64% 29.92 in 6.2 mi West 6.9 mph - N/A   Partly Cloudy
7:00 PM 68.0 °F 53.6 °F 60% 29.95 in 6.2 mi West 6.9 mph - N/A   Partly Cloudy
7:30 PM 68.0 °F 55.4 °F 64% 29.95 in 6.2 mi West 6.9 mph - N/A   Partly Cloudy
8:00 PM 66 °F 53 °F 53%  in 12 mi WSW 10.4 mph - -   Scattered Clouds
8:00 PM 66.2 °F 53.6 °F 64% 29.95 in 6.2 mi WSW 10.4 mph - N/A   Partly Cloudy
8:30 PM 62.6 °F 53.6 °F 72% 29.95 in 6.2 mi WSW 6.9 mph - N/A   Partly Cloudy
9:00 PM 60.8 °F 53.6 °F 77% 29.98 in 6.2 mi WSW 6.9 mph - N/A   Partly Cloudy
9:30 PM 60.8 °F 53.6 °F 77% 29.98 in 6.2 mi Variable 1.2 mph - N/A   Partly Cloudy
10:00 PM 62.6 °F 55.4 °F 77% 29.98 in - SSW 5.8 mph - N/A   Clear
10:30 PM 59.0 °F 55.4 °F 88% 29.98 in - SW 4.6 mph - N/A   Clear
11:00 PM 59.0 °F 55.4 °F 88% 30.01 in - Calm Calm - N/A   Clear
11:30 PM 60.8 °F 55.4 °F 82% 30.01 in - Calm Calm - N/A   Clear